Ortonville, MN

10:05 PM CDT on October 23, 2017 (GMT -0500)
Ortonville Municipal-Martinson

Weather History for KVVV - November, 2012

Change the Weather History Date:

Thursday, November 8, 2012

  Actual Average (KAQP) Record (KAQP)
Temperature  
Mean Temperature 42 °F -  
Max Temperature 50 °F 41 °F 82 °F (1999)
Min Temperature 33 °F 24 °F 1 °F (2003)
Degree Days  
Heating Degree Days 24    
Moisture  
Dew Point 33 °F    
Average Humidity 78    
Maximum Humidity 87    
Minimum Humidity 62    
Precipitation  
Precipitation 0.00 in - - ()
Sea Level Pressure  
Sea Level Pressure 29.93 in    
Wind  
Wind Speed 13 mph (NNE)    
Max Wind Speed 23 mph    
Max Gust Speed 29 mph    
Visibility 10 miles    
Events      
Averages and records for this station are not official NWS values.
T = Trace of Precipitation, MM = Missing Value Source: NWS Daily Summary

Daily Weather History Graph

Daily Weather History Graph

Search for Another Location

Airport or City:

Trip Planner

Search our weather history database for the weather conditions in past years. The results will help you decide how hot, cold, wet, or windy it might be!

Date:

Astronomy

Nov. 08, 2012 Rise Set
Actual Time 7:15 AM CST 5:03 PM CST
Civil Twilight 6:43 AM CST 5:34 PM CST
Nautical Twilight 6:08 AM CST 6:09 PM CST
Astronomical Twilight 5:33 AM CST 6:44 PM CST
Moon 12:55 AM CST (11/8) 1:59 PM CST (11/8)
Length of Visible Light 10h 50m
Length of Day
9h 47m
Waning Crescent, 32% of the Moon is Illuminated
Nov 8
Waning Crescent
Nov 13
New
Nov 20
First Quarter
Nov 28
Full
Dec 6
Last Quarter

Hourly Weather History & Observations

Time (CST) Temp. Windchill Dew Point Humidity Pressure Visibility Wind Dir Wind Speed Gust Speed Precip Events Conditions
12:13 AM 37.4 °F 28.2 °F 30.2 °F 75% 29.85 in 10.0 mi SE 16.1 mph - N/A   Clear
12:34 AM 35.6 °F 25.9 °F 30.2 °F 81% 29.85 in 10.0 mi SE 16.1 mph - N/A   Clear
12:54 AM 35.6 °F 26.6 °F 30.2 °F 81% 29.84 in 10.0 mi SSE 13.8 mph - N/A   Clear
1:13 AM 35.6 °F 25.9 °F 30.2 °F 81% 29.84 in 10.0 mi SSE 16.1 mph 20.7 mph N/A   Clear
1:34 AM 35.6 °F 26.2 °F 30.2 °F 81% 29.83 in 10.0 mi SE 15.0 mph 18.4 mph N/A   Clear
1:54 AM 35.6 °F 26.2 °F 30.2 °F 81% 29.83 in 10.0 mi SE 15.0 mph - N/A   Clear
2:13 AM 35.6 °F 26.6 °F 30.2 °F 81% 29.83 in 10.0 mi SE 13.8 mph - N/A   Clear
2:34 AM 35.6 °F 27.1 °F 30.2 °F 81% 29.83 in 10.0 mi SE 12.7 mph - N/A   Clear
2:54 AM 35.6 °F 28.0 °F 30.2 °F 81% 29.83 in 10.0 mi SE 10.4 mph - N/A   Clear
3:13 AM 35.6 °F 27.1 °F 30.2 °F 81% 29.83 in 10.0 mi SE 12.7 mph - N/A   Clear
3:34 AM 35.6 °F 27.5 °F 30.2 °F 81% 29.82 in 10.0 mi SE 11.5 mph - N/A   Clear
3:53 AM 35.6 °F 27.1 °F 30.2 °F 81% 29.82 in 10.0 mi SE 12.7 mph - N/A   Clear
4:14 AM 33.8 °F 24.8 °F 30.2 °F 87% 29.81 in 10.0 mi SE 12.7 mph - N/A   Clear
4:34 AM 33.8 °F 26.4 °F 30.2 °F 87% 29.83 in 10.0 mi SE 9.2 mph - N/A   Clear
4:53 AM 33.8 °F 26.4 °F 30.2 °F 87% 29.83 in 10.0 mi SE 9.2 mph - N/A   Clear
5:14 AM 33.8 °F 25.8 °F 30.2 °F 87% 29.82 in 10.0 mi SE 10.4 mph - N/A   Clear
5:34 AM 33.8 °F 26.4 °F 30.2 °F 87% 29.83 in 10.0 mi SE 9.2 mph - N/A   Clear
5:53 AM 35.6 °F 29.2 °F 30.2 °F 81% 29.84 in 10.0 mi SE 8.1 mph - N/A   Clear
6:14 AM 33.8 °F 27.0 °F 30.2 °F 87% 29.84 in 10.0 mi SE 8.1 mph - N/A   Clear
6:53 AM 33.8 °F 28.6 °F 30.2 °F 87% 29.85 in 10.0 mi SE 5.8 mph - N/A   Clear
7:14 AM 33.8 °F 29.6 °F 30.2 °F 87% 29.85 in 10.0 mi SE 4.6 mph - N/A   Clear
7:33 AM 35.6 °F 31.7 °F 30.2 °F 81% 29.86 in 10.0 mi SE 4.6 mph - N/A   Clear
7:54 AM 35.6 °F 31.7 °F 30.2 °F 81% 29.87 in 10.0 mi SE 4.6 mph - N/A   Clear
8:14 AM 35.6 °F 31.7 °F 30.2 °F 81% 29.87 in 10.0 mi SSE 4.6 mph - N/A   Clear
8:33 AM 39.2 °F 35.9 °F 32.0 °F 75% 29.88 in 10.0 mi SSE 4.6 mph - N/A   Clear
8:54 AM 39.2 °F 37.0 °F 32.0 °F 75% 29.88 in 10.0 mi South 3.5 mph - N/A   Clear
9:14 AM 39.2 °F - 32.0 °F 75% 29.89 in 10.0 mi Calm Calm - N/A   Clear
9:33 AM 41.0 °F - 32.0 °F 70% 29.90 in 10.0 mi Calm Calm - N/A   Clear
9:54 AM 42.8 °F - 33.8 °F 70% 29.90 in 10.0 mi Calm Calm - N/A   Clear
10:14 AM 44.6 °F 43.1 °F 33.8 °F 66% 29.90 in 10.0 mi WNW 3.5 mph - N/A   Clear
10:33 AM 46.4 °F 41.9 °F 33.8 °F 62% 29.91 in 10.0 mi NW 9.2 mph - N/A   Clear
10:54 AM 46.4 °F 41.1 °F 33.8 °F 62% 29.91 in 10.0 mi NNW 11.5 mph - N/A   Clear
11:13 AM 48.2 °F - 35.6 °F 62% 29.91 in 10.0 mi North 15.0 mph 20.7 mph N/A   Clear
11:34 AM 48.2 °F - 35.6 °F 62% 29.91 in 10.0 mi North 18.4 mph 24.2 mph N/A   Clear
11:54 AM 48.2 °F - 35.6 °F 62% 29.91 in 10.0 mi North 19.6 mph 24.2 mph N/A   Clear
12:14 PM 48.2 °F - 37.4 °F 66% 29.92 in 10.0 mi North 19.6 mph 26.5 mph N/A   Clear
12:34 PM 48.2 °F - 37.4 °F 66% 29.93 in 10.0 mi North 19.6 mph - N/A   Clear
12:53 PM 50.0 °F - 37.4 °F 62% 29.93 in 10.0 mi North 20.7 mph 26.5 mph N/A   Clear
1:14 PM 50.0 °F - 37.4 °F 62% 29.93 in 10.0 mi North 18.4 mph 24.2 mph N/A   Scattered Clouds
1:34 PM 46.4 °F 38.7 °F 37.4 °F 71% 29.94 in 10.0 mi North 20.7 mph 28.8 mph N/A   Overcast
1:53 PM 46.4 °F 38.7 °F 35.6 °F 66% 29.95 in 10.0 mi North 20.7 mph 25.3 mph N/A   Overcast
2:14 PM 44.6 °F 36.4 °F 35.6 °F 71% 29.96 in 10.0 mi North 20.7 mph - N/A   Overcast
2:34 PM 42.8 °F 34.8 °F 35.6 °F 76% 29.97 in 10.0 mi North 17.3 mph 25.3 mph N/A   Overcast
2:53 PM 42.8 °F 34.0 °F 35.6 °F 76% 29.98 in 10.0 mi North 20.7 mph 25.3 mph N/A   Overcast
3:14 PM 42.8 °F 33.8 °F 35.6 °F 76% 29.99 in 10.0 mi North 21.9 mph 27.6 mph N/A   Overcast
3:34 PM 42.8 °F 34.5 °F 35.6 °F 76% 29.99 in 10.0 mi North 18.4 mph 21.9 mph N/A   Overcast
3:54 PM 41.0 °F 31.1 °F 35.6 °F 81% 29.99 in 10.0 mi North 23.0 mph 27.6 mph N/A   Overcast
4:14 PM 41.0 °F 31.4 °F 33.8 °F 76% 30.00 in 10.0 mi North 21.9 mph 25.3 mph N/A   Overcast
4:31 PM 41.0 °F 31.9 °F 33.8 °F 76% 30.01 in 10.0 mi North 19.6 mph - N/A   Overcast
4:54 PM 41.0 °F 31.6 °F 33.8 °F 76% 30.01 in 10.0 mi North 20.7 mph - N/A   Overcast
5:14 PM 41.0 °F 32.5 °F 33.8 °F 76% 30.01 in 10.0 mi North 17.3 mph - N/A   Overcast
5:33 PM 41.0 °F 33.1 °F 33.8 °F 76% 30.01 in 10.0 mi North 15.0 mph 20.7 mph N/A   Overcast
5:54 PM 41.0 °F 32.2 °F 33.8 °F 76% 30.02 in 10.0 mi North 18.4 mph - N/A   Overcast
6:13 PM 39.2 °F 29.8 °F 33.8 °F 81% 30.03 in 10.0 mi North 18.4 mph - N/A   Overcast
6:34 PM 39.2 °F 31.2 °F 33.8 °F 81% 30.04 in 10.0 mi North 13.8 mph - N/A   Overcast
6:54 PM 39.2 °F 30.8 °F 33.8 °F 81% 30.03 in 10.0 mi North 15.0 mph - N/A   Overcast
7:13 PM 39.2 °F 30.8 °F 33.8 °F 81% 30.03 in 10.0 mi North 15.0 mph - N/A   Overcast
7:34 PM 39.2 °F 30.5 °F 33.8 °F 81% 30.03 in 10.0 mi North 16.1 mph - N/A   Overcast
7:54 PM 39.2 °F 31.2 °F 33.8 °F 81% 30.03 in 10.0 mi North 13.8 mph - N/A   Overcast
8:13 PM 39.2 °F 30.8 °F 33.8 °F 81% 30.03 in 10.0 mi North 15.0 mph - N/A   Overcast
8:34 PM 39.2 °F 32.0 °F 33.8 °F 81% 30.03 in 10.0 mi North 11.5 mph - N/A   Overcast
8:54 PM 39.2 °F 32.5 °F 33.8 °F 81% 30.03 in 10.0 mi North 10.4 mph - N/A   Overcast
9:14 PM 39.2 °F 32.0 °F 33.8 °F 81% 30.04 in 10.0 mi North 11.5 mph - N/A   Overcast
9:34 PM 39.2 °F 33.0 °F 33.8 °F 81% 30.04 in 10.0 mi North 9.2 mph - N/A   Overcast
9:54 PM 37.4 °F 31.4 °F 33.8 °F 87% 30.04 in 10.0 mi North 8.1 mph - N/A   Overcast
10:14 PM 37.4 °F 30.8 °F 33.8 °F 87% 30.04 in 10.0 mi North 9.2 mph - N/A   Overcast
10:34 PM 37.4 °F 30.3 °F 33.8 °F 87% 30.04 in 10.0 mi North 10.4 mph - N/A   Overcast
10:53 PM 37.4 °F 30.3 °F 33.8 °F 87% 30.04 in 10.0 mi North 10.4 mph - N/A   Overcast
11:14 PM 39.2 °F 32.5 °F 33.8 °F 81% 30.04 in 10.0 mi North 10.4 mph - N/A   Overcast
11:34 PM 39.2 °F 32.5 °F 33.8 °F 81% 30.04 in 10.0 mi North 10.4 mph - N/A   Overcast
11:53 PM 39.2 °F 32.0 °F 33.8 °F 81% 30.04 in 10.0 mi North 11.5 mph - N/A   Overcast